Weather in Jackson

United States     32°18′31″N   90°11′35″W
В апреле 2022 года жителям России запретили посещать сайт meteo.paraplan.net по решению Генеральной прокуратуры. Аудитория сайта уменьшилась в 10 раз. Владельцы сайта не видят смысла в поддержке погодного сервера в таких условиях. Сайт будет закрыт в октябре.
temp.,
°C
wind,
m/s
gust,
m/s
humid.,
%
clouds,
%
prec.,
mm/h
press.,
hPa
HPBL,
m
4 october, tue
tue401:00+18ne2469100 0.0 1018107
04:00+17ene2377100 0.0 101896
07:00+16ene238185 0.0 101982
10:00+22e2256100 0.0 1020514
13:00+26nne1145100 0.0 10191499
16:00+27n1241100 0.0 10161806
19:00+22nnw245595 0.0 101782
22:00+21nne115168 0.0 101820
5 october, wed
wed501:00+19ne22530 0.0 101842
04:00+18ese115919 0.0 101812
07:00+17ene11677 0.0 101916
10:00+23ene11490 0.0 1020416
13:00+28nnw22350 0.0 10181873
16:00+28nnw22300 0.0 10161972
19:00+23nnw22400 0.0 101730
22:00+21nnw11400 0.0 101811
6 october, thu
thu601:00+19ene11450 0.0 101911
04:00+17wsw00480 0.0 101811
07:00+16sw11500 0.0 102011
10:00+23w11380 0.0 1021296
13:00+28nw22270 0.0 10201270
16:00+28nw22240 0.0 10181429
19:00+23nw11340 0.0 101911
22:00+22ssw22360 0.0 102018
7 october, fri
fri701:00+20ssw22385 0.0 102026
04:00+19nw224264 0.0 102037
07:00+18wsw114695 0.0 102118
10:00+24wnw2340100 0.0 1023298
13:00+28nw3333100 0.0 1021963
16:00+29nnw2433100 0.0 10191316
19:00+24w1144100 0.0 102011
22:00+22n2348100 0.0 102172
8 october, sat
sat801:00+21ne41148100 0.0 1022403
04:00+19ne41054100 0.0 1023365
07:00+17ne3958100 0.0 1024320
10:00+21ne4640100 0.0 1026529
13:00+26nne34290 0.0 10241121
16:00+26n45280 0.0 10221337
19:00+22nne25360 0.0 1022126
22:00+19ene26340 0.0 1024159